sat.trackr.live / text

‹ back to catalog

STARLINK-5516

NORAD 57253 · 2023-094AM

PAYLOAD ACTIVE UNKNOWN

§ Identity

Operator
Country
US
Launch date
2023-07-07
Launch site
AFWTR
Launch vehicle
Mass (kg)
RCS (m²)

Purposes: comms

External: N2YO · Heavens-Above · Gunter

§ Orbital elements

Epoch: 2026-09-20T07:04:13.807200Z

Period
94.27 min
Inclination
43.0030°
Eccentricity
0.0001121
Mean motion
15.27574745 rev/d
Perigee alt
482.3 km
Apogee alt
483.8 km
Semi-major
6,861.2 km
B*
1.2283e-6
RAAN
0.7484°
Arg perigee
268.7247°
Mean anomaly
91.3476°
Rev number
17,700

§ Raw data

STARLINK-55161 57253U 23094AM  26263.29460425 -.00000228  00000+0  12283-5 0  99942 57253  43.0030   0.7484 0001121 268.7247  91.3476 15.27574745177000

JSON: /api/v1/satellites/57253 · /tle

For live sub-satellite position, see the globe view (requires WebGL).

§ Visibility from observer

Set your observer location to see the next 7 days of passes ≥ 10°. The values pass through the URL so the page stays shareable.

No JS? Fill the form by hand. The geolocation button needs JavaScript.